Location: Buffign�court
(47.8126°N, 6.0176°E)
Time: 14:11:16
(UTC+00:00)

Meteor 2-10 Rocket - Pass Details

Date: 16 June 2021
Orbit: 733 x 885 km, 81.2° (Epoch: 31 July)

Event Time Altitude Azimuth Distance (km) Brightness Sun altitude
Rises 21:27:22 0° 354° (N) 3,246 8.0 -13.1°
Reaches altitude 10° 21:29:57 10° 3° (N) 2,295 6.9 -13.3°
Maximum altitude 21:34:41 36° 70° (ENE) 1,167 4.4 -13.7°
Enters shadow 21:37:49 18° 127° (SE) 1,747 4.8 -14.0°
